Pantelleria Airport LICG

Flugplatz Daten

Name: Pantelleria Airport

Ident: LICG

Lat: 36,81650162

Long: 11,96889973

Platzhöhe: 628 ft

IataCode: PNL

City: Pantelleria

Metar

2022/08/13 17:50
LICG 131750Z 21007KT CAVOK 30/21 Q1013

Taf

2016/02/08 18:00
TAF TAF LICG 081800Z 0818/0906 CNL
Gewünschte Webcam nicht vorhanden? Dann fügen Sie eine hinzu. Sie wird dann so schnell wie möglich freigeschaltet
Url: Title: